Regional Weather Roundup
Issued by NWS Jackson, KY

Home | Current Version | Previous Version | Text Only | Print | Product List | Glossary Off
Versions: 1 2 3 4 5 6 7 8 9 10 11 12 13 14 15 16 17 18 19 20 21 22 23 24 25 26 27 28 29 30 31 32 33 34 35 36 37 38 39 40 41 42 43 44 45 46 47 48 49 50

000
ASUS43 KJKL 101710
RWRJKL

EAST KENTUCKY HOURLY WEATHER ROUNDUP
NATIONAL WEATHER SERVICE JACKSON KY
1200 PM EST WED FEB 10 2016

NOTE: "FAIR" INDICATES FEW OR NO CLOUDS BELOW 12,000 FEET WITH
NO SIGNIFICANT WEATHER AND/OR OBSTRUCTIONS TO VISIBILITY.

* THESE REPORTS ARE NOT UNDER NWS QUALITY CONTROL AND MAY NOT
  REPORT WEATHER SUCH AS PRECIPITATION AND FOG.

KYZ079-080-083-085-087-088-110-112-115-119-120-101800
...EASTERN KENTUCKY...

CITY           SKY/WX    TMP DP  RH WIND       PRES   REMARKS
JACKSON        CLOUDY    18   5  57 W8G18     30.00S WCI   8
LONDON         FLURRIES  17   7  64 W17       30.07R WCI   1
SOMERSET*      CLOUDY    18  10  73 W15       30.13S WCI   3
MONTICELLO*    FLURRIES  17   8  67 W23       30.14R WCI  -1
WILLIAMSBURG*  PTSUNNY   19   9  63 MISG      30.09R
MIDDLESBORO*   CLOUDY    23   9  55 W8        30.07S WCI  14
HARLAN APT*    CLOUDY    19  12  73 SW10G17   30.01S WCI   8
HAZARD APT*    CLOUDY    19  10  68 MISG      30.02R
BLACK MTN*       N/A     12  10  92 CALM        N/A
BIG SANDY*     CLOUDY    20  10  63 W3G17     29.99S
MOREHEAD APT*  PTSUNNY   19   7  58 W8G23     30.05R WCI   9
$$

KYZ035-036-041-042-044-050-067-078-099-101800
...CENTRAL KENTUCKY...

CITY           SKY/WX    TMP DP  RH WIND       PRES   REMARKS
MT STERLING*   CLOUDY    21  10  63 NW8G24    30.06R WCI  12
DANVILLE*      CLOUDY    18   9  68 W15G23    30.10R HAZE    WCI   3
RICHMOND*      CLOUDY    18  10  73 W12       30.07R WCI   5
LEXINGTON      FLURRIES  17   7  64 W17G23    30.07R WCI   1
FRANKFORT      CLOUDY    17   5  59 W13G20    30.08R WCI   4
$$

KYZ091>093-OHZ055-061-077-WVZ005-015-034-035-042-101800
...SOUTHERN OHIO/WEST VIRGINIA...

CITY           SKY/WX    TMP DP  RH WIND       PRES   REMARKS
COVINGTON      CLOUDY    17   8  67 W18       30.03R WCI   1
COLUMBUS       LGT SNOW  18  10  71 W15G22    29.93R WCI   4
DAYTON         LGT SNOW  16  10  77 W21       29.97R WCI  -1
WILMINGTON     LGT SNOW  15   9  76 W21       29.96R WCI  -2
HUNTINGTON     FLURRIES  21   8  57 W8G20     30.00S WCI  11
CHARLESTON     LGT SNOW  19  13  77 W13G18    29.96F WCI   6
PINEVILLE*       N/A     19   7  57 MISG      29.96F
BECKLEY        CLOUDY    15   3  59 W13G23    29.83F WCI   1
$$

VAZ002-007-008-TNZ017-027-036-066-071-101800
...SOUTHWEST VIRGINIA/EAST TENNESSEE...

CITY           SKY/WX    TMP DP  RH WIND       PRES   REMARKS
BRISTOL        FLURRIES  21   9  59 W14G22    30.00S WCI   8
KNOXVILLE      PTSUNNY   26   8  46 W17G25    30.10F WCI  13
OAK RIDGE      PTSUNNY   26   6  42 W9G18     30.12S WCI  17
CROSSVILLE     MOSUNNY   19   5  54 W22G30    30.06R WCI   2
NASHVILLE      PTSUNNY   24   9  52 VRB6G17   30.21S WCI  17
$$

...KEY TO REMARKS...
VSB - VISIBILITY IN MILES
WCI - WIND CHILL INDEX
HX  - HEAT INDEX

$$



USA.gov is the U.S. government's official web portal to all federal, state and local government web resources and services.